Terminal Aerodrome Forecast
Issued by NWS

Home | Current Version | Previous Version | Text Only | Print | Product List | Glossary On
Versions: 1 2 3 4 5 6 7 8 9 10 11 12 13 14 15 16 17 18 19 20 21 22 23 24 25 26 27 28 29 30
716
FTUS43 KDMX 251141
TAFMCW
TAF
KMCW 251141Z 2512/2612 14007KT P6SM VCTS SCT040CB OVC100
     FM251400 13008KT 5SM -TSRA BKN005 OVC020CB
     FM251600 15011KT P6SM VCTS OVC040CB
     FM251900 17016KT P6SM SCT040 BKN070
     FM260300 19005KT P6SM VCTS BKN035CB OVC080
     FM261000 22005KT P6SM SCT020 BKN100=

USA.gov is the U.S. government's official web portal to all federal, state and local government web resources and services.